This demonstration page uses our WeatherBlox Daily Observations layout. Learn more.

Left ArrowRight Arrow

Hourly Observations for September 21, 2019

Temp ( °F °C ) Dew Point ( °F °C ) Humidity (%) Winds ( mph kmh ) Pressure ( in mb ) Visibility ( mi km ) Precip ( " mm )
12:59 am 00:59 Clear 62 16.7 59 15 90 90 S 6 9 30.28 1026 10 16 0.00 0.00
1:59 am 01:59 Clear 61 16.1 58 14.4 90 90 S 3 6 30.28 1026 10 16 0.00 0.00
2:59 am 02:59 Clear 61 16.1 58 14.4 90 90 SSW 3 6 30.28 1025 10 16 0.00 0.00
3:59 am 03:59 Mostly Clear 60 15.6 58 14.4 93 93 SSW 5 7 30.28 1025 10 16 0.00 0.00
4:59 am 04:59 Mostly Clear 60 15.6 58 14.4 93 93 Calm 30.28 1025 10 16 0.00 0.00
5:59 am 05:59 Mostly Clear 59 15 57 13.9 93 93 SSW 3 6 30.28 1025 10 16 0.00 0.00
6:59 am 06:59 Sunny 60 15.6 57 13.9 90 90 VRB 3 6 30.29 1026 10 16 0.00 0.00
7:59 am 07:59 Sunny 63 17.2 59 15 87 87 Calm 30.30 1026 10 16 0.00 0.00
8:59 am 08:59 Sunny 68 20 62 16.7 81 81 SW 5 7 30.31 1026 10 16 0.00 0.00
9:59 am 09:59 Sunny 72 22.2 61 16.1 68 68 SW 7 11 30.30 1026 10 16 0.00 0.00
10:59 am 10:59 Mostly Sunny 76 24.4 61 16.1 60 60 VRB 5 7 30.29 1026 10 16 0.00 0.00
11:59 am 11:59 Mostly Sunny 78 25.6 60 15.6 54 54 VRB 5 7 30.28 1025 10 16 0.00 0.00
12:59 pm 12:59 Mostly Sunny 81 27.2 58 14.4 45 45 VRB 3 6 30.26 1025 10 16 0.00 0.00
1:59 pm 13:59 Mostly Sunny 82 27.8 58 14.4 44 44 VRB 5 7 30.24 1024 10 16 0.00 0.00
2:59 pm 14:59 Mostly Sunny 83 28.3 59 15 44 44 SW 6 9 30.23 1024 10 16 0.00 0.00
3:59 pm 15:59 Mostly Sunny 83 28.3 60 15.6 46 46 WSW 6 9 30.21 1023 10 16 0.00 0.00
4:59 pm 16:59 Mostly Sunny 83 28.3 61 16.1 48 48 VRB 6 9 30.20 1023 10 16 0.00 0.00
5:59 pm 17:59 Mostly Sunny 81 27.2 61 16.1 51 51 SSW 3 6 30.20 1023 10 16 0.00 0.00
6:59 pm 18:59 Partly Cloudy 76 24.4 62 16.7 62 62 SSW 5 7 30.20 1023 10 16 0.00 0.00
7:59 pm 19:59 Partly Cloudy 72 22.2 64 17.8 76 76 S 5 7 30.20 1023 10 16 0.00 0.00
8:59 pm 20:59 Clear 73 22.8 63 17.2 71 71 S 6 9 30.21 1023 10 16 0.00 0.00
9:59 pm 21:59 Clear 73 22.8 62 16.7 69 69 S 5 7 30.23 1024 10 16 0.00 0.00
10:59 pm 22:59 Clear 71 21.7 62 16.7 73 73 S 6 9 30.23 1024 10 16 0.00 0.00
11:59 pm 23:59 Clear 71 21.7 62 16.7 73 73 SSW 9 15 30.23 1024 10 16 0.00 0.00

Powered by AerisWeather